Flag for Guadeloupe Weather past 2 weeks in Basse-Terre, Guadeloupe

Now
81 °F

Partly sunny.


Feels Like: 85 °F
Forecast: N/A
Wind: 3 mph from East

Location: Le Raizet - Guadeloupe

Current Time: Aug 30, 2014 at 5:08:56 PM

Latest Report: Aug 30, 2014 at 4:30 PM


Visibility: N/A

Pressure: 30.01 "Hg

Humidity: 74%

Dew point: 72 °F

Location of Basse-TerreLocation

Historic Weather in Basse-Terre — Graph

°F

Basse-Terre temperature yesterday

Maximum temperature yesterday: 88 °F (at 11:00 AM)
Minimum temperature yesterday: 75 °F (at 4:30 AM)
Average temperature yesterday: 81 °F

Past Weeks' High & Low Weather Summary

 TemperatureHumidityPressure
High90 °F (Aug 19, 12:00 PM)94% (Aug 16, 6:30 AM)30.07 "Hg (Aug 16, 6:30 AM)
Low72 °F (Aug 24, 4:30 AM)52% (Aug 17, 2:00 PM)29.83 "Hg (Aug 21, 3:30 PM)
Average81 °F77%29.95 "Hg
* Reported Aug 15 4:00 PM — Aug 30 4:00 PM, Basse-Terre, Weather by CustomWeather, © 2014

Note: Actual official high and low records may vary slightly from our data, if they occured in-between our weather recording intervals... More about our weather records

Advertising

Basse-Terre weather history for previous 24 hours

 ConditionsComfort  
Time TempWeatherWind HumidityBarometerVisibility
4:00 PM
Aug 30
81 °FPartly sunny.5 mph74%30.01 "HgN/A
3:30 PM79 °FBroken clouds.12 mph79%30.01 "HgN/A
3:00 PM79 °FBroken clouds.10 mph84%30.01 "HgN/A
2:00 PM81 °FSprinkles. Scattered clouds.8 mph74%30.01 "HgN/A
1:30 PM86 °FScattered clouds.10 mph59%30.01 "HgN/A
1:00 PM86 °FScattered clouds.10 mph62%30.04 "HgN/A
12:30 PM84 °FSprinkles. Scattered clouds.9 mph66%30.04 "HgN/A
12:00 PM84 °FBroken clouds.9 mph66%30.04 "HgN/A
11:41 AM84 °FPartly sunny.12 mph66%30.04 "HgN/A
11:00 AM84 °FSprinkles. Partly sunny.10 mph66%30.04 "HgN/A
10:30 AM88 °FScattered clouds.12 mph59%30.04 "HgN/A
10:00 AM88 °FScattered clouds.10 mph55%30.04 "HgN/A
9:30 AM84 °FPartly sunny.6 mph70%30.04 "HgN/A
9:00 AM84 °FScattered clouds.10 mph66%30.04 "HgN/A
8:30 AM86 °FPassing clouds.12 mph66%30.04 "HgN/A
8:00 AM84 °FPassing clouds.8 mph70%30.04 "HgN/A
7:30 AM82 °FPassing clouds.6 mph74%30.01 "HgN/A
7:14 AM82 °FPassing clouds.6 mph74%30.01 "HgN/A
7:00 AM81 °FPassing clouds.6 mph79%30.01 "HgN/A
6:30 AM79 °FScattered clouds.6 mph79%30.01 "HgN/A
6:00 AM77 °FScattered clouds.5 mph83%30.01 "HgN/A
5:30 AM77 °FPassing clouds.6 mph89%30.01 "HgN/A
5:00 AM77 °FPassing clouds.2 mph89%29.98 "HgN/A
4:30 AM75 °FClear.2 mph94%29.98 "HgN/A
4:00 AM75 °FClear.2 mph94%29.98 "HgN/A
3:30 AM75 °FClear.2 mph94%29.98 "HgN/A
3:00 AM77 °FPassing clouds.No wind89%29.98 "HgN/A
2:30 AM77 °FClear.2 mph83%29.98 "HgN/A
2:00 AM77 °FPassing clouds.1 mph89%29.98 "HgN/A
1:30 AM77 °FPassing clouds.3 mph83%30.01 "HgN/A
1:00 AM77 °FPartly cloudy.6 mph83%30.01 "HgN/A
12:30 AM77 °FClear.2 mph89%30.01 "HgN/A
12:00 AM77 °FClear.2 mph89%30.04 "HgN/A
11:30 PM
Aug 29
77 °FPassing clouds.2 mph83%30.04 "HgN/A
11:00 PM79 °FPartly cloudy.2 mph79%30.04 "HgN/A
10:30 PM79 °FPassing clouds.1 mph79%30.04 "HgN/A
10:00 PM79 °FClear.3 mph79%30.04 "HgN/A
9:30 PM79 °FWarm.2 mph79%30.04 "HgN/A
9:00 PM81 °FPassing clouds.3 mph74%30.04 "HgN/A
8:30 PM81 °FPassing clouds.3 mph79%30.01 "HgN/A
8:00 PM81 °FClear.3 mph79%30.01 "HgN/A
7:30 PM81 °FClear.2 mph79%30.01 "HgN/A
7:00 PM81 °FPassing clouds.3 mph79%29.98 "HgN/A
6:30 PM82 °FPassing clouds.6 mph70%29.98 "HgN/A
6:00 PM82 °FScattered clouds.7 mph74%29.98 "HgN/A
5:30 PM84 °FScattered clouds.9 mph66%29.95 "HgN/A
5:00 PM84 °FScattered clouds.8 mph66%29.95 "HgN/A
Weather by CustomWeather, © 2014

See weather overviewHow to use our weather pages